Location: Yellowknife
(62.4500°N, 114.3500°W)
Time: 04:22:04
(UTC-06:00)

Envisat - Visible Passes

Search period start: 21 October 2018 00:00
Search period end: 31 October 2018 00:00
Orbit: 764 x 766 km, 98.2° (Epoch: 21 October)

Date Brightness Start Highest point End Pass type
(mag) Time Alt. Az. Time Alt. Az. Time Alt. Az.
21 Oct 3.0 20:04:51 10° SSE 20:09:57 84° WSW 20:15:05 10° NNW visible
21 Oct 5.3 21:45:47 10° SW 21:49:45 22° W 21:53:44 10° NW visible
22 Oct 3.0 19:28:13 10° SE 19:33:14 61° ENE 19:38:16 10° NNW visible
22 Oct 4.5 21:07:53 10° SSW 21:12:34 36° W 21:17:18 10° NNW visible
23 Oct 6.5 07:28:33 10° ENE 07:29:07 10° ENE 07:29:41 10° E visible
23 Oct 3.5 18:51:57 10° ESE 18:56:39 39° NE 19:01:23 10° NNW visible
23 Oct 3.5 20:30:33 10° S 20:35:35 60° WSW 20:40:39 10° NNW visible
23 Oct 5.7 22:12:38 10° WSW 22:15:42 16° W 22:18:47 10° NW visible
24 Oct 2.9 19:53:39 10° SSE 19:58:45 85° ENE 20:03:53 10° NNW visible
24 Oct 5.1 21:34:11 10° SW 21:38:25 26° W 21:42:40 10° NNW visible
25 Oct 6.0 07:52:17 10° NE 07:55:12 15° E 07:58:05 10° ESE visible
25 Oct 3.1 19:17:08 10° SE 19:22:05 54° ENE 19:27:03 10° NNW visible
25 Oct 4.2 20:56:29 10° SSW 21:01:18 42° W 21:06:09 10° NNW visible
25 Oct 6.0 22:40:28 10° W 22:41:46 11° WNW 22:43:04 10° WNW visible
26 Oct 3.6 18:40:58 10° ESE 18:45:33 35° NE 18:50:09 10° N visible
26 Oct 3.3 20:19:17 10° S 20:24:21 69° WSW 20:29:28 10° NNW visible
26 Oct 5.5 22:00:51 10° SW 22:04:21 18° W 22:07:52 10° NW visible
27 Oct 2.9 19:42:30 10° SSE 19:47:34 74° ENE 19:52:40 10° NNW visible
27 Oct 4.8 21:22:39 10° SSW 21:27:06 30° W 21:31:35 10° NNW visible
28 Oct 6.1 07:41:32 10° NE 07:43:48 13° ENE 07:46:05 10° ESE visible
28 Oct 3.3 19:06:05 10° SE 19:10:56 47° ENE 19:15:49 10° NNW visible
28 Oct 3.9 20:45:07 10° S 20:50:02 49° W 20:55:00 10° NNW visible
28 Oct 5.9 22:28:07 10° WSW 22:30:21 13° WNW 22:32:38 10° NW visible
29 Oct 3.8 18:30:01 10° ESE 18:34:27 31° NE 18:38:55 10° N visible
29 Oct 3.1 20:08:02 10° SSE 20:13:09 80° WSW 20:18:17 10° NNW visible
29 Oct 5.3 21:49:09 10° SW 21:52:59 21° W 21:56:51 10° NW visible
30 Oct 5.8 08:06:18 10° NE 08:09:50 18° E 08:13:20 10° SE visible
30 Oct 3.0 19:31:22 10° SE 19:36:24 65° ENE 19:41:28 10° NNW visible
30 Oct 4.6 21:11:11 10° SSW 21:15:48 34° W 21:20:28 10° NNW visible
